When you browse on this site, cookies collect data to enhance your experience and personalize the content and advertising you see.
Visit our Privacy Policy to learn more. By continuing to use the site, you agree to this use of cookies and data.

Tiempo cada hora Bilbao

Hoy, 3 Julio, Viernes

Tiempo Temperatura Precipitaciones Viento Presión Humedad
00:00 +15°C° 0 mm 2 mps 758 mmHg 93%
01:00 +14°C° 0.1 mm 2 mps 758 mmHg 94%
02:00 +14°C° 0.1 mm 2 mps 758 mmHg 94%
03:00 +14°C° 0.1 mm 1 mps 758 mmHg 95%
04:00 +14°C° 0.1 mm 1 mps 758 mmHg 94%
05:00 +15°C° 0.1 mm 1 mps 758 mmHg 93%
06:00 +15°C° 0.1 mm 1 mps 758 mmHg 92%
07:00 +18°C° 0.1 mm 1 mps 758 mmHg 83%
08:00 +19°C° 0.1 mm 1 mps 758 mmHg 74%
09:00 +20°C° 0.1 mm 2 mps 758 mmHg 65%
10:00 +20°C° 0 mm 2 mps 758 mmHg 62%
11:00 +21°C° 0 mm 2 mps 758 mmHg 59%
12:00 +22°C° 0 mm 3 mps 758 mmHg 55%
13:00 +22°C° 0 mm 3 mps 758 mmHg 55%
14:00 +23°C° 0 mm 2 mps 758 mmHg 54%
15:00 +23°C° 0 mm 2 mps 757 mmHg 53%
16:00 +21°C° 0 mm 2 mps 758 mmHg 56%
17:00 +21°C° 0 mm 2 mps 758 mmHg 59%
18:00 +20°C° 0 mm 2 mps 758 mmHg 62%
19:00 +18°C° 0 mm 2 mps 758 mmHg 71%
20:00 +16°C° 0 mm 1 mps 759 mmHg 80%
21:00 +13°C° 0 mm 0 mps 759 mmHg 89%
22:00 +14°C° 0 mm 1 mps 759 mmHg 90%
23:00 +13°C° 0 mm 1 mps 759 mmHg 90%

Mañana, 4 Julio, Sábado

Tiempo Temperatura Precipitaciones Viento Presión Humedad
00:00 +13°C° 0 mm 1 mps 759 mmHg 91%
01:00 +13°C° 0 mm 1 mps 759 mmHg 91%
02:00 +13°C° 0 mm 1 mps 759 mmHg 91%
03:00 +12°C° 0 mm 1 mps 758 mmHg 91%
04:00 +13°C° 0 mm 1 mps 759 mmHg 87%
05:00 +14°C° 0 mm 1 mps 759 mmHg 84%
06:00 +14°C° 0 mm 1 mps 759 mmHg 81%
07:00 +18°C° 0 mm 1 mps 759 mmHg 69%
08:00 +21°C° 0 mm 1 mps 759 mmHg 57%
09:00 +24°C° 0 mm 1 mps 759 mmHg 45%
10:00 +25°C° 0 mm 1 mps 759 mmHg 43%
11:00 +26°C° 0 mm 2 mps 759 mmHg 40%
12:00 +27°C° 0 mm 2 mps 759 mmHg 38%
13:00 +27°C° 0 mm 2 mps 759 mmHg 37%
14:00 +27°C° 0 mm 2 mps 758 mmHg 37%
15:00 +28°C° 0 mm 2 mps 758 mmHg 37%
16:00 +26°C° 0 mm 2 mps 758 mmHg 42%
17:00 +25°C° 0 mm 2 mps 758 mmHg 46%
18:00 +24°C° 0 mm 1 mps 758 mmHg 51%
19:00 +22°C° 0 mm 1 mps 759 mmHg 59%
20:00 +20°C° 0 mm 1 mps 759 mmHg 66%
21:00 +16°C° 0 mm 0 mps 759 mmHg 74%
22:00 +16°C° 0 mm 0 mps 759 mmHg 72%
23:00 +18°C° 0 mm 1 mps 759 mmHg 69%

Pasado mañana, 5 Julio, Domingo

Tiempo Temperatura Precipitaciones Viento Presión Humedad
00:00 +18°C° 0 mm 1 mps 759 mmHg 66%
01:00 +18°C° 0 mm 1 mps 759 mmHg 63%
02:00 +18°C° 0 mm 1 mps 758 mmHg 59%
03:00 +18°C° 0 mm 1 mps 758 mmHg 55%
04:00 +18°C° 0 mm 1 mps 758 mmHg 55%
05:00 +19°C° 0 mm 1 mps 758 mmHg 55%
06:00 +20°C° 0 mm 1 mps 758 mmHg 55%
07:00 +22°C° 0 mm 1 mps 758 mmHg 50%
08:00 +25°C° 0 mm 1 mps 758 mmHg 44%
09:00 +28°C° 0 mm 1 mps 758 mmHg 39%
10:00 +29°C° 0 mm 1 mps 757 mmHg 39%
11:00 +29°C° 0 mm 2 mps 757 mmHg 38%
12:00 +30°C° 0 mm 2 mps 757 mmHg 38%
13:00 +30°C° 0 mm 2 mps 757 mmHg 39%
14:00 +30°C° 0 mm 2 mps 756 mmHg 41%
15:00 +30°C° 0 mm 3 mps 756 mmHg 42%
16:00 +28°C° 0 mm 2 mps 756 mmHg 47%
17:00 +27°C° 0 mm 2 mps 756 mmHg 51%
18:00 +26°C° 0 mm 2 mps 756 mmHg 56%
19:00 +24°C° 0 mm 2 mps 756 mmHg 65%
20:00 +22°C° 0 mm 1 mps 757 mmHg 75%
21:00 +19°C° 0 mm 1 mps 757 mmHg 84%
22:00 +19°C° 0 mm 1 mps 757 mmHg 86%
23:00 +18°C° 0 mm 1 mps 757 mmHg 89%

6 Julio, Lunes

Tiempo Temperatura Precipitaciones Viento Presión Humedad
00:00 +18°C° 0 mm 1 mps 757 mmHg 91%
01:00 +18°C° 0 mm 1 mps 757 mmHg 91%
02:00 +18°C° 0 mm 1 mps 757 mmHg 91%
03:00 +18°C° 0 mm 1 mps 756 mmHg 91%
04:00 +18°C° 0.1 mm 1 mps 757 mmHg 92%
05:00 +18°C° 0.1 mm 2 mps 757 mmHg 92%
06:00 +18°C° 0.1 mm 2 mps 757 mmHg 92%
07:00 +18°C° 0.1 mm 2 mps 757 mmHg 91%
08:00 +19°C° 0.1 mm 2 mps 757 mmHg 91%
09:00 +19°C° 0.1 mm 2 mps 757 mmHg 90%
10:00 +20°C° 0.2 mm 2 mps 757 mmHg 86%
11:00 +21°C° 0.2 mm 3 mps 757 mmHg 83%
12:00 +21°C° 0.2 mm 4 mps 757 mmHg 79%
13:00 +21°C° 0.1 mm 3 mps 757 mmHg 82%
14:00 +20°C° 0.1 mm 3 mps 757 mmHg 86%
15:00 +19°C° 0.1 mm 3 mps 757 mmHg 89%
16:00 +19°C° 0 mm 3 mps 757 mmHg 89%
17:00 +18°C° 0 mm 3 mps 757 mmHg 89%
18:00 +18°C° 0 mm 2 mps 757 mmHg 88%
19:00 +18°C° 0 mm 2 mps 758 mmHg 89%
20:00 +17°C° 0 mm 2 mps 758 mmHg 90%
21:00 +17°C° 0 mm 2 mps 758 mmHg 91%
22:00 +16°C° 0 mm 2 mps 758 mmHg 91%
23:00 +16°C° 0 mm 1 mps 757 mmHg 91%

7 Julio, Martes

Tiempo Temperatura Precipitaciones Viento Presión Humedad
00:00 +15°C° 0 mm 1 mps 757 mmHg 91%
01:00 +15°C° 0 mm 1 mps 757 mmHg 90%
02:00 +15°C° 0 mm 1 mps 756 mmHg 90%
03:00 +14°C° 0 mm 0 mps 756 mmHg 89%
04:00 +14°C° 0 mm 0 mps 756 mmHg 88%
05:00 +14°C° 0 mm 0 mps 756 mmHg 87%
06:00 +15°C° 0 mm 0 mps 756 mmHg 86%
07:00 +18°C° 0 mm 1 mps 756 mmHg 79%
08:00 +19°C° 0 mm 2 mps 756 mmHg 72%
09:00 +20°C° 0 mm 2 mps 755 mmHg 65%
10:00 +22°C° 0 mm 3 mps 755 mmHg 60%
11:00 +24°C° 0 mm 3 mps 755 mmHg 54%
12:00 +25°C° 0 mm 4 mps 755 mmHg 49%
13:00 +25°C° 0 mm 4 mps 755 mmHg 49%
14:00 +25°C° 0 mm 4 mps 754 mmHg 48%
15:00 +23°C° 0 mm 4 mps 754 mmHg 48%
16:00 +24°C° 0 mm 3 mps 754 mmHg 54%
17:00 +22°C° 0 mm 3 mps 754 mmHg 60%
18:00 +21°C° 0 mm 3 mps 754 mmHg 65%
19:00 +19°C° 0 mm 3 mps 754 mmHg 74%
20:00 +17°C° 0 mm 2 mps 755 mmHg 83%
21:00 +16°C° 0 mm 2 mps 755 mmHg 92%
22:00 +16°C° 0 mm 2 mps 755 mmHg 93%
23:00 +15°C° 0 mm 2 mps 755 mmHg 93%

8 Julio, Miércoles

Tiempo Temperatura Precipitaciones Viento Presión Humedad
00:00 +15°C° 0 mm 2 mps 755 mmHg 94%
01:00 +15°C° 0 mm 2 mps 754 mmHg 94%
02:00 +15°C° 0 mm 1 mps 754 mmHg 95%
03:00 +15°C° 0 mm 1 mps 754 mmHg 95%
04:00 +16°C° 0 mm 1 mps 754 mmHg 93%
05:00 +16°C° 0 mm 1 mps 754 mmHg 92%
06:00 +18°C° 0 mm 1 mps 754 mmHg 90%
07:00 +19°C° 0.2 mm 2 mps 754 mmHg 82%
08:00 +21°C° 0.2 mm 2 mps 754 mmHg 74%
09:00 +23°C° 0.2 mm 2 mps 754 mmHg 67%
10:00 +24°C° 0.3 mm 2 mps 753 mmHg 63%
11:00 +25°C° 0.3 mm 3 mps 753 mmHg 60%
12:00 +26°C° 0.3 mm 3 mps 753 mmHg 56%
13:00 +26°C° 0.2 mm 3 mps 752 mmHg 57%
14:00 +26°C° 0.2 mm 3 mps 752 mmHg 58%
15:00 +27°C° 0.2 mm 3 mps 752 mmHg 58%
16:00 +26°C° 0.1 mm 2 mps 752 mmHg 62%
17:00 +25°C° 0.1 mm 2 mps 751 mmHg 65%
18:00 +24°C° 0.1 mm 2 mps 751 mmHg 69%
19:00 +21°C° 0.6 mm 2 mps 752 mmHg 76%
20:00 +19°C° 0.6 mm 2 mps 752 mmHg 84%
21:00 +18°C° 0.6 mm 2 mps 753 mmHg 92%
22:00 +17°C° 0.1 mm 2 mps 753 mmHg 92%
23:00 +17°C° 0.1 mm 2 mps 753 mmHg 92%
Mostrar más